Location: Presov
(49.0000°N, 21.2500°E)
Time: 11:51:53
(UTC+01:00)

NOAA 15 - Visible Passes

Search period start: 30 November 2023 00:00
Search period end: 10 December 2023 00:00
Orbit: 796 x 811 km, 98.6° (Epoch: 29 November)

Date Brightness Start Highest point End Pass type
(mag) Time Alt. Az. Time Alt. Az. Time Alt. Az.
30 Nov 7.3 06:14:04 10° NE 06:17:52 20° E 06:21:38 10° SE visible
30 Nov 4.8 17:37:20 10° SE 17:42:21 45° ENE 17:47:24 10° N visible
30 Nov 6.3 19:17:40 10° SSW 19:22:17 30° W 19:26:54 10° NNW visible
01 Dec 7.7 05:49:58 10° ENE 05:51:55 12° E 05:53:51 10° ESE visible
01 Dec 5.3 17:12:26 10° ESE 17:16:58 30° ENE 17:21:30 10° N visible
01 Dec 5.5 18:51:25 10° S 18:56:32 47° W 19:01:39 10° NNW visible
02 Dec 5.8 16:47:56 10° ESE 16:51:41 20° ENE 16:55:25 10° NNE visible
02 Dec 4.7 18:25:34 10° S 18:30:52 76° WSW 18:36:12 10° NNW visible
02 Dec 7.5 20:09:39 10° WSW 20:11:31 12° W 20:13:24 10° WNW visible
03 Dec 6.2 16:24:02 10° E 16:26:29 13° NE 16:28:54 10° NNE visible
03 Dec 4.5 18:00:03 10° SSE 18:05:19 69° ENE 18:10:35 10° N visible
03 Dec 6.9 19:41:48 10° SW 19:45:34 20° W 19:49:21 10° NW visible
04 Dec 7.4 06:11:37 10° NE 06:15:18 19° E 06:18:57 10° SE visible
04 Dec 4.9 17:34:51 10° SE 17:39:50 43° ENE 17:44:50 10° N visible
04 Dec 6.2 19:15:03 10° SSW 19:19:43 31° W 19:24:25 10° NNW visible
05 Dec 7.8 05:47:44 10° ENE 05:49:20 11° E 05:50:56 10° ESE visible
05 Dec 5.4 17:09:59 10° ESE 17:14:27 29° ENE 17:18:55 10° N visible
05 Dec 5.4 18:48:51 10° S 18:53:58 50° W 18:59:08 10° NNW visible
06 Dec 5.9 16:45:32 10° E 16:49:10 19° ENE 16:52:48 10° NNE visible
06 Dec 4.6 18:23:01 10° SSE 18:28:20 80° WSW 18:33:39 10° NNW visible
06 Dec 7.4 20:06:48 10° WSW 20:08:56 12° W 20:11:06 10° WNW visible
07 Dec 6.8 06:34:02 10° NE 06:38:35 29° E 06:43:06 10° SSE visible
07 Dec 6.2 16:21:44 10° ENE 16:23:58 13° NE 16:26:13 10° NNE visible
07 Dec 4.5 17:57:32 10° SSE 18:02:46 66° ENE 18:08:01 10° N visible
07 Dec 6.9 19:39:07 10° SW 19:43:00 20° W 19:46:53 10° NW visible
08 Dec 7.4 06:09:09 10° NE 06:12:43 18° E 06:16:14 10° SE visible
08 Dec 4.9 17:32:22 10° SE 17:37:18 42° ENE 17:42:15 10° N visible
08 Dec 6.2 19:12:26 10° SSW 19:17:09 32° W 19:21:54 10° NNW visible
09 Dec 7.9 05:45:36 10° ENE 05:46:44 11° E 05:47:52 10° E visible
09 Dec 5.4 17:07:32 10° ESE 17:11:56 27° ENE 17:16:19 10° N visible
09 Dec 5.3 18:46:16 10° S 18:51:25 52° W 18:56:35 10° NNW visible
